Waukegan, IL

10:45 AM CDT on August 17, 2017 (GMT -0500)
Waukegan Regional

Weather History for KUGN - February, 2014

Change the Weather History Date:

Wednesday, February 12, 2014

  Actual Average Record
Temperature  
Mean Temperature 10 °F -  
Max Temperature 23 °F 32 °F 46 °F (2017)
Min Temperature -4 °F 17 °F -4 °F (2014)
Degree Days  
Heating Degree Days 55 40  
Month to date heating degree days 673 496  
Since 1 July heating degree days 5145 4347  
Cooling Degree Days 0 0  
Month to date cooling degree days 0 0  
Year to date cooling degree days 0 0  
Moisture  
Dew Point 4 °F    
Average Humidity 70    
Maximum Humidity 95    
Minimum Humidity 45    
Precipitation  
Precipitation 0.00 in 0.06 in 0.18 in (2007)
Month to date precipitation T 0.67  
Year to date precipitation 1.07 2.06  
Sea Level Pressure  
Sea Level Pressure 30.23 in    
Wind  
Wind Speed 6 mph (SSW)    
Max Wind Speed 10 mph    
Max Gust Speed 13 mph    
Visibility 8 miles    
Events      
T = Trace of Precipitation, MM = Missing Value Source: NWS Daily Summary

Daily Weather History Graph

Daily Weather History Graph

Search for Another Location

Airport or City:

Trip Planner

Search our weather history database for the weather conditions in past years. The results will help you decide how hot, cold, wet, or windy it might be!

Date:

Astronomy

Feb. 12, 2014 Rise Set
Actual Time 6:52 AM CST 5:19 PM CST
Civil Twilight 6:23 AM CST 5:48 PM CST
Nautical Twilight 5:50 AM CST 6:22 PM CST
Astronomical Twilight 5:17 AM CST 6:54 PM CST
Moon 3:32 PM CST (2/12) 5:09 AM CST (2/12)
Length of Visible Light 11h 25m
Length of Day
10h 27m
Waxing Gibbous, 95% of the Moon is Illuminated
Feb 12
Waxing Gibbous
Feb 14
Full
Feb 22
Last Quarter
Mar 1
New
Mar 8
First Quarter

Hourly Weather History & Observations

Time (CST) Temp. Windchill Dew Point Humidity Pressure Visibility Wind Dir Wind Speed Gust Speed Precip Events Conditions
12:52 AM 1.9 °F -10.6 °F -4.0 °F 76% 30.42 in 9.0 mi South 6.9 mph - N/A   Clear
1:52 AM -2.0 °F -12.2 °F -5.1 °F 87% 30.42 in 8.0 mi South 4.6 mph - N/A   Clear
2:52 AM -4.0 °F -12.4 °F -6.0 °F 91% 30.39 in 8.0 mi South 3.5 mph - N/A   Clear
3:52 AM 1.9 °F -10.6 °F -2.0 °F 83% 30.37 in 7.0 mi South 6.9 mph - N/A   Partly Cloudy
4:52 AM 1.9 °F -7.6 °F -2.0 °F 83% 30.37 in 7.0 mi South 4.6 mph - N/A   Clear
5:52 AM 3.9 °F -8.2 °F -0.0 °F 84% 30.35 in 7.0 mi South 6.9 mph - N/A   Overcast
6:52 AM 5.0 °F -5.6 °F 1.0 °F 84% 30.34 in 6.0 mi SSW 5.8 mph - N/A   Overcast
7:52 AM 7.0 °F -1.7 °F 1.9 °F 80% 30.33 in 6.0 mi SSW 4.6 mph - N/A   Haze
8:52 AM 9.0 °F -2.2 °F 3.0 °F 77% 30.31 in 6.0 mi South 6.9 mph - N/A   Haze
9:52 AM 12.0 °F 0.5 °F 3.0 °F 67% 30.30 in 7.0 mi SSW 8.1 mph - N/A   Overcast
10:52 AM 16.0 °F 5.3 °F 5.0 °F 62% 30.28 in 7.0 mi SSW 8.1 mph - N/A   Overcast
11:52 AM 19.0 °F 10.0 °F 5.0 °F 54% 30.24 in 8.0 mi SSW 6.9 mph - N/A   Overcast
12:52 PM 21.0 °F 11.4 °F 6.1 °F 53% 30.20 in 9.0 mi South 8.1 mph - N/A   Mostly Cloudy
1:52 PM 21.9 °F 14.5 °F 5.0 °F 48% 30.16 in 10.0 mi SW 5.8 mph - N/A   Mostly Cloudy
2:52 PM 21.9 °F 12.5 °F 3.9 °F 46% 30.16 in 10.0 mi SW 8.1 mph - N/A   Mostly Cloudy
3:52 PM 21.9 °F 13.4 °F 5.0 °F 48% 30.14 in 10.0 mi SW 6.9 mph - N/A   Mostly Cloudy
4:52 PM 21.9 °F 17.2 °F 5.0 °F 48% 30.15 in 10.0 mi WSW 3.5 mph - N/A   Overcast
5:52 PM 21.0 °F - 7.0 °F 55% 30.15 in 10.0 mi Calm Calm - N/A   Overcast
6:52 PM 21.0 °F 16.2 °F 10.0 °F 63% 30.15 in 10.0 mi SSW 3.5 mph - N/A   Overcast
7:52 PM 21.9 °F 12.5 °F 8.1 °F 55% 30.11 in 10.0 mi SSE 8.1 mph - N/A   Overcast
8:52 PM 21.9 °F 13.4 °F 9.0 °F 58% 30.09 in 10.0 mi South 6.9 mph - N/A   Overcast
9:52 PM 21.9 °F 15.7 °F 10.0 °F 60% 30.08 in 9.0 mi South 4.6 mph - N/A   Overcast
10:52 PM 21.9 °F - 10.9 °F 63% 30.07 in 9.0 mi Calm Calm - N/A   Overcast
11:52 PM 21.9 °F 15.7 °F 10.0 °F 60% 30.05 in 9.0 mi South 4.6 mph - N/A   Overcast